Starlink 34917

operational
NORAD ID: 65190 Int'l Des: 2025-175 Owner: SPXS Country: US Constellation: starlink
LEOCIRCULARRETROGRADESSO

About Starlink 34917

Description loading...

Live Position

Loading 3D Globe...

Upcoming Passes

Altitude History

Altitude vs Time

uPlot chart will show altitude changes over time

Two-Line Element Set

1 65190U 25175S 25346.91668981 .00029178 00000-0 20190-2 0 9990
2 65190 97.6026 217.1569 0002882 89.8025 335.1723 15.05629951 5840
Epoch: Dec 12, 2025 • Age: 9 hours

Current Status

Altitude 579.6 km
Velocity 7.57 km/s
Sub-Earth Point -79.82°S, 79.24°E
Launch Date Aug 14, 2025
Age 0.3 years
Type internet

Technical Details

Classification Payload
Mass 575.00 kg
Dry Mass 530.00 kg
Total Mass 575.00 kg
Length 0.30 m
Diameter 4.10 m
Span 29.00 m
Shape Box + pan
Manufacturer SPXS
Bus Type Starlink V2MO
Phase Status In Orbit
Owner/State SPXS/US

Large Constellations

Loading constellations...